OPS 4682 DEB, 38386

Orbit data source: Space-Track

OPS 4682 DEB, 38386 is space debris in LEO originally from a launch on Sat, 03 Apr 1965 UTC launched from the Air Force Western Test Range (AFWTR). Debris objects in space refer to the collection of defunct objects orbiting the Earth. Examples of debris include non-operational satellites, rocket bodies, and fragments generated from explosions, collisions, or faulty payload assembly.

Loading next visibility...
Identifier
38386, 1965-027CP
Orbit
LEO
Country
Flag of USUS
Related business
Manufacturer
Unknown
Mission
Spacecraft
Bus & Motor
Unknown
Mass
Unknown
Launch date (UTC)
1965-04-03 (61 years ago)
Launch vehicle
Unknown
Launch site
Air Force Western Test Range (AFWTR)
Object type
Payload
Rocket body
Debris
Shape & HBR
Unknown shape, 0.1 m
Radar Cross Section
Medium (>0.1 m² and <1 m²)

Expand to show TLE details & history
Last TLE update: 12 hours ago

TLE from 12 hours ago
0 OPS 4682 DEB
1 38386U 65027CP  26263.63629603 -.00000556  00000-0 -18338-2 0  9995
2 38386  90.2945  36.4955 0030158 320.3509  39.5409 13.01337287670086
Epoch: 2026-09-20T15:16Z
TLE epoch observation values (Epoch: 2026-09-20T15:16:15.976Z)
Latitude
0.00003°
Longitude
167.9013°
Altitude
1,242.005 km
Speed
7.242 km/s
True Right ascension
02h 25m 58s
True Declination
0° 00' 00"
Sunlit
Object was in full shadow at epoch
Visualization orbit readout
Latitude
Unknown
Longitude
Unknown
Altitude
Unknown
Speed
Unknown
Apparent Right ascension
Unknown
Apparent Declination
Unknown
Sunlit
N/A
Visualization observer readout
Local Sidereal Time
19:47:28
Azimuth
Unknown
Elevation
Unknown
Doppler factor
Unknown
Orbital elements
Apogee altitude
1,276.994 km
Perigee altitude
1,230.96 km
Semi-major axis
7,632.114 km
Eccentricity
0.00302
Inclination
90.2945°
RAAN
36.4955°
Arg. of periapsis
320.3509°
True anomaly
39.76155°
Mean anomaly
39.5409°
Eccentric anomaly
39.65116°
Mean motion
3.25519 °/min
Orbital period
110.59 mins
BSTAR
-0.0018338
Loading maneuver chart data...
Computing Atmospheric mass density...
Loading historical data...
Loading historical data...
Loading historical data...
Loading historical data...
Loading historical data...
Loading historical data...
Loading historical data...

Documentation

Showing up to 5 results
|